Weather History for Springfield, CO

Change the Weather History Date:

Friday, May 9, 2014

  Actual Average Record
Temperature  
Mean Temperature 54 °F -  
Max Temperature 74 °F 74 °F 91 °F (2004)
Min Temperature 33 °F 44 °F 33 °F (2002)
Degree Days  
Heating Degree Days 11 7  
Month to date heating degree days 58 72  
Since 1 July heating degree days 5191 5171  
Cooling Degree Days 0 1  
Month to date cooling degree days 14 7  
Year to date cooling degree days 20 11  
Growing Degree Days 3 (Base 50)    
Moisture  
Dew Point 26 °F    
Average Humidity 53    
Maximum Humidity 96    
Minimum Humidity 10    
Precipitation  
Precipitation 0.00 in 0.04 in 0.15 in (2006)
Month to date precipitation 0.00 0.52  
Year to date precipitation 1.70 3.73  
Sea Level Pressure  
Sea Level Pressure 29.80 in    
Wind  
Wind Speed 9 mph (SW)    
Max Wind Speed 23 mph    
Max Gust Speed 31 mph    
T = Trace of Precipitation, MM = Missing Value Source: NWS Daily Summary

Daily Weather History Graph

Daily Weather History Graph

Search for Another Location

Airport:

Trip Planner

Search our weather history database for the weather conditions in past years. The results will help you decide how hot, cold, wet, or windy it might be!

Date:

Astronomy

May. 09, 2014 Rise Set
Actual Time 5:47 AM MDT 7:47 PM MDT
Civil Twilight 5:18 AM MDT 8:15 PM MDT
Nautical Twilight 4:43 AM MDT 8:50 PM MDT
Astronomical Twilight 4:06 AM MDT 9:28 PM MDT
Moon 2:53 PM MDT (5/9) 2:43 AM MDT (5/9)
Length of Visible Light 14h 57m
Length of Day
14h 00m
Waxing Gibbous, 74% of the Moon is Illuminated
May 9
Waxing Gibbous
May 14
Full
May 21
Last Quarter
May 28
New
Jun 5
First Quarter

Hourly Weather History & Observations

Time (MDT) Temp. Windchill Dew Point Humidity Pressure Visibility Wind Dir Wind Speed Gust Speed Precip Events Conditions
12:56 AM 41.0 °F 35.2 °F 37.0 °F 86% 29.88 in - WNW 9.2 mph - N/A   Unknown
1:56 AM 39.0 °F 36.8 °F 35.1 °F 86% 29.90 in - WSW 3.5 mph - N/A   Unknown
2:56 AM 36.0 °F 31.1 °F 33.1 °F 89% 29.89 in - West 5.8 mph - N/A   Unknown
3:56 AM 34.0 °F 31.0 °F 32.0 °F 92% 29.92 in - WSW 3.5 mph - N/A   Unknown
4:56 AM 37.0 °F 32.4 °F 33.1 °F 86% 29.91 in - WSW 5.8 mph - N/A   Unknown
5:56 AM 33.1 °F 30.0 °F 30.9 °F 92% 29.93 in - West 3.5 mph - N/A   Unknown
6:56 AM 41.0 °F 37.1 °F 36.0 °F 82% 29.92 in - SW 5.8 mph - N/A   Unknown
7:56 AM 54.0 °F - 36.0 °F 51% 29.88 in - SSW 13.8 mph 19.6 mph N/A   Unknown
8:56 AM 59.0 °F - 35.1 °F 41% 29.86 in - SSW 10.4 mph - N/A   Unknown
9:56 AM 61.0 °F - 34.0 °F 36% 29.85 in - South 19.6 mph - N/A   Unknown
10:56 AM 66.0 °F - 28.0 °F 24% 29.84 in - SSW 13.8 mph 21.9 mph N/A   Unknown
11:56 AM 64.9 °F - 28.0 °F 25% 29.83 in - South 17.3 mph - N/A   Unknown
12:56 PM 66.0 °F - 25.0 °F 21% 29.80 in - South 13.8 mph 21.9 mph N/A   Unknown
1:56 PM 69.1 °F - 19.9 °F 15% 29.77 in - SSW 12.7 mph 23.0 mph N/A   Unknown
2:56 PM 73.0 °F - 18.0 °F 12% 29.73 in - WSW 15.0 mph 28.8 mph N/A   Unknown
3:56 PM 72.0 °F - 12.0 °F 10% 29.71 in - West 8.1 mph 19.6 mph N/A   Unknown
4:56 PM 73.0 °F - 15.1 °F 11% 29.69 in - West 12.7 mph 17.3 mph N/A   Unknown
5:56 PM 72.0 °F - 15.1 °F 11% 29.67 in - WSW 5.8 mph - N/A   Unknown
6:56 PM 69.1 °F - 19.0 °F 15% 29.66 in - ESE 3.5 mph - N/A   Unknown
7:56 PM 59.0 °F - 21.9 °F 24% 29.67 in - SE 9.2 mph - N/A   Unknown
8:56 PM 59.0 °F - 18.0 °F 20% 29.67 in - SE 5.8 mph - N/A   Unknown
9:56 PM 53.1 °F - 21.0 °F 29% 29.72 in - WNW 8.1 mph - N/A   Unknown
10:56 PM 52.0 °F - 19.0 °F 27% 29.71 in - WNW 5.8 mph - N/A   Unknown
11:56 PM 44.1 °F 40.1 °F 19.9 °F 38% 29.73 in - WSW 6.9 mph - N/A   Unknown